[[{"header":{"parameterUnit":"m.s-1","parameterCategory":1,"la1":30.2991,"la2":30.254,"lo1":-89.0895,"lo2":-89.0444,"dy":0.0017,"dx":0.0017,"nx":28,"ny":28,"refTime":"2024-08-15T21:00:00:Z","depth":0,"parameterNumber":2,"parameterNumberName":"U-component_of_WINDS"},"data":[0,0,0,0,0,0,0,0,0,0,0,0,0,0,0,0,0,0,0,0,0,0,0,0,0,0,0,0,0,0,0,0,0,0,0,0,0,0,0,0,0,0,0,0,0,0,0,0,0,0,0,0,0,0,0,0,0,0,-0.7214,-0.7215,0,-0.7261,-0.7262,-0.7262,-0.7274,-0.7274,-0.7273,-0.7273,-0.7317,-0.7318,-0.732,0,0,0,0,0,0,0,0,0,0,0,0,0,-0.7132,-0.7133,-0.7214,-0.7215,-0.7216,-0.7261,-0.7262,-0.7262,-0.7274,-0.7274,-0.7273,-0.7273,-0.7316,-0.7318,-0.732,0,0,0,0,0,0,0,0,0,0,0,0,0,-0.7172,-0.7134,-0.7214,-0.7227,-0.7229,-0.7261,-0.7262,-0.7262,-0.7274,-0.7274,-0.7273,-0.7273,-0.7316,-0.7318,-0.732,-0.7341,0,0,-0.7326,-0.7327,0,0,0,0,0,0,0,0,-0.7169,-0.7175,-0.7225,-0.7226,-0.7228,-0.7261,-0.7248,-0.7289,-0.7274,-0.7257,-0.7273,-0.7273,-0.7298,-0.7302,-0.7311,-0.7344,-0.7345,-0.7327,-0.7328,-0.7329,-0.7329,0,0,0,0,0,0,0,-0.7167,-0.7173,-0.7233,-0.7225,-0.7227,-0.7229,-0.7234,-0.7256,-0.7279,-0.7258,-0.7259,-0.7265,-0.7299,-0.7309,-0.7313,-0.7346,-0.7327,-0.7329,-0.733,-0.7331,-0.7397,-0.7398,0,0,0,0,0,0,-0.7162,-0.717,-0.7231,-0.7234,-0.7197,-0.7231,-0.7237,-0.7251,-0.7279,-0.7283,-0.7265,-0.7265,-0.7306,-0.731,-0.7314,-0.7341,-0.7329,-0.7331,-0.7332,-0.7397,-0.7397,-0.7398,0,0,0,0,0,0,-0.716,-0.7168,-0.7229,-0.7203,-0.7211,-0.7233,-0.7249,-0.7252,-0.7262,-0.7284,-0.7288,-0.7271,-0.7306,-0.7311,-0.7335,-0.7343,-0.7332,-0.7334,-0.7396,-0.7397,-0.7398,-0.7395,0,0,0,0,0,0,-0.7158,-0.7167,-0.7176,-0.7203,-0.7212,-0.725,-0.7249,-0.7253,-0.7266,-0.7267,-0.7291,-0.7295,-0.7306,-0.7331,-0.7337,-0.7345,-0.7335,-0.7396,-0.7396,-0.7397,-0.7394,-0.7395,-0.7396,0,0,0,0,0,-0.7155,-0.7173,-0.7177,-0.7184,-0.7224,-0.7251,-0.7256,-0.727,-0.7267,-0.7276,-0.729,-0.7294,-0.7341,-0.7334,-0.734,-0.7349,-0.7395,-0.7396,-0.7397,-0.7394,-0.7395,-0.7396,0,0,0,0,0,0,-0.7145,-0.7177,-0.7181,-0.7208,-0.7227,-0.7253,-0.7265,-0.727,-0.7289,-0.7289,-0.7303,-0.7309,-0.7331,-0.7342,-0.7334,-0.7371,-0.7368,-0.737,-0.7363,-0.7364,-0.7365,-0.7362,-0.7337,0,0,0,0,0,-0.7147,-0.7167,-0.7192,-0.7214,-0.7223,-0.7242,-0.7254,-0.7263,-0.7282,-0.729,-0.7306,-0.7323,-0.7342,-0.7354,-0.7372,-0.7396,-0.7401,-0.7405,-0.7406,-0.7407,-0.7408,-0.7421,-0.7423,-0.7401,-0.7401,-0.7401,0,0,-0.7149,-0.7168,-0.718,-0.7212,-0.7228,-0.7247,-0.7249,-0.7269,-0.7283,-0.7293,-0.7316,-0.7328,-0.7349,-0.7372,-0.7383,-0.7382,-0.7416,-0.7408,-0.7408,-0.741,-0.7422,-0.7425,-0.7426,-0.7402,-0.7402,-0.7402,0,0,-0.7163,-0.718,-0.72,-0.7216,-0.724,-0.7252,-0.7257,-0.7282,-0.7291,-0.7315,-0.7322,-0.7338,-0.737,-0.7384,-0.7396,-0.7415,-0.7419,-0.742,-0.7425,-0.7438,-0.7439,-0.7441,-0.7447,-0.7449,-0.7422,-0.7422,-0.7422,0,-0.7163,-0.7194,-0.7209,-0.7229,-0.7243,-0.7254,-0.7273,-0.7287,-0.7315,-0.7323,-0.7322,-0.7362,-0.7376,-0.7403,-0.7408,-0.7417,-0.7422,-0.7418,-0.7438,-0.744,-0.7441,-0.7448,-0.745,-0.7422,-0.7422,-0.7422,-0.7422,0,-0.7192,-0.7213,-0.7225,-0.7254,-0.7269,-0.7288,-0.7305,-0.7318,-0.7325,-0.7338,-0.7361,-0.7379,-0.7401,-0.7408,-0.7415,-0.7436,-0.7434,-0.7435,-0.7432,-0.7443,-0.7449,-0.7452,-0.7422,-0.7422,-0.7422,-0.7422,0,0,-0.7201,-0.7238,-0.7242,-0.7255,-0.7282,-0.7298,-0.7317,-0.734,-0.735,-0.7369,-0.7385,-0.7412,-0.7413,-0.7426,-0.7434,-0.7445,-0.7458,-0.7445,-0.7445,-0.7446,-0.7482,-0.7481,-0.7483,-0.7462,-0.7462,-0.7462,-0.748,0,-0.7218,-0.7255,-0.727,-0.7299,-0.7318,-0.7328,-0.7345,-0.7362,-0.7374,-0.7391,-0.7403,-0.7422,-0.7422,-0.743,-0.7441,-0.7455,-0.7466,-0.7453,-0.7475,-0.7476,-0.747,-0.7486,-0.7486,-0.7501,-0.7482,-0.7483,-0.7483,0,-0.7244,-0.7264,-0.7296,-0.732,-0.7329,-0.7344,-0.7365,-0.7382,-0.7401,-0.7409,-0.7423,-0.7431,-0.7451,-0.7447,-0.7473,-0.7464,-0.7474,-0.7482,-0.7483,-0.7485,-0.748,-0.7489,-0.7506,-0.7509,-0.7487,-0.7487,-0.7486,0,-0.7247,-0.7282,-0.7306,-0.7316,-0.7345,-0.7356,-0.7368,-0.7387,-0.74,-0.7418,-0.7426,-0.7446,-0.7457,-0.7472,-0.7484,-0.748,-0.7509,-0.7506,-0.7515,-0.7515,-0.7521,-0.752,-0.754,-0.7527,-0.7527,-0.7527,-0.7527,0,-0.7265,-0.7284,-0.7308,-0.7322,-0.7343,-0.7358,-0.7378,-0.7391,-0.7408,-0.7424,-0.7433,-0.7448,-0.7464,-0.748,-0.749,-0.751,-0.7514,-0.752,-0.7523,-0.7519,-0.7519,-0.7526,-0.7525,-0.7528,-0.7528,-0.7528,-0.7527,0,-0.7272,-0.7289,-0.7315,-0.7341,-0.7348,-0.7362,-0.7383,-0.7397,-0.7409,-0.7429,-0.7435,-0.7453,-0.7473,-0.7487,-0.7512,-0.7518,-0.7539,-0.7542,-0.7533,-0.7534,-0.7542,-0.7541,-0.7567,-0.7571,-0.7556,-0.7556,-0.7556,0,-0.7283,-0.7297,-0.7325,-0.7337,-0.735,-0.7369,-0.7382,-0.7397,-0.741,-0.7434,-0.7444,-0.7464,-0.7482,-0.7512,-0.7527,-0.7546,-0.7548,-0.7556,-0.7551,-0.7547,-0.7548,-0.7547,-0.7548,-0.7557,-0.7557,-0.7557,-0.7557,0,-0.7299,-0.7306,-0.7326,-0.7348,-0.7364,-0.7382,-0.7399,-0.7408,-0.7427,-0.744,-0.7461,-0.7475,-0.75,-0.752,-0.754,-0.7551,-0.7557,-0.7558,-0.7561,-0.7558,-0.7553,-0.7555,-0.7535,-0.7558,-0.7558,-0.7558,-0.7558,-0.7558,-0.7308,-0.7321,-0.7343,-0.7364,-0.7379,-0.7395,-0.741,-0.7424,-0.7442,-0.7465,-0.7472,-0.7494,-0.7512,-0.754,-0.7551,-0.7567,-0.7567,-0.7571,-0.7572,-0.7573,-0.7573,-0.755,-0.7571,-0.7571,-0.7571,-0.7571,-0.7571,0,-0.7324,-0.7338,-0.7358,-0.7383,-0.7399,-0.7404,-0.7424,-0.7437,-0.7456,-0.7473,-0.749,-0.7513,-0.7533,-0.7549,-0.7569,-0.7578,-0.7581,-0.7583,-0.7582,-0.7584,-0.7572,-0.7567,-0.758,-0.758,-0.758,-0.758,-0.758,-0.758,-0.7335,-0.7358,-0.7368,-0.7398,-0.7412,-0.7434,-0.7445,-0.7459,-0.7473,-0.7499,-0.7516,-0.7527,-0.7543,-0.7564,-0.7582,-0.7586,-0.7592,-0.7593,-0.7598,-0.7586,-0.7585,-0.7584,-0.758,-0.7595,-0.7595,-0.7609,-0.7609,-0.7609]},{"header":{"parameterUnit":"m.s-1","parameterCategory":1,"la1":30.2991,"la2":30.254,"lo1":-89.0895,"lo2":-89.0444,"dy":0.0017,"dx":0.0017,"nx":28,"ny":28,"refTime":"2024-08-15T21:00:00:Z","depth":0,"parameterNumber":3,"parameterNumberName":"V-component_of_WINDS"},"data":[0,0,0,0,0,0,0,0,0,0,0,0,0,0,0,0,0,0,0,0,0,0,0,0,0,0,0,0,0,0,0,0,0,0,0,0,0,0,0,0,0,0,0,0,0,0,0,0,0,0,0,0,0,0,0,0,0,0,1.4638,1.4638,0,1.4664,1.4664,1.4664,1.4706,1.4706,1.4707,1.4708,1.4732,1.4732,1.4732,0,0,0,0,0,0,0,0,0,0,0,0,0,1.4622,1.4622,1.4638,1.4638,1.4639,1.4664,1.4664,1.4664,1.4706,1.4706,1.4707,1.4708,1.4732,1.4732,1.4732,0,0,0,0,0,0,0,0,0,0,0,0,0,1.4636,1.4622,1.4638,1.4662,1.4665,1.4664,1.4664,1.4664,1.4705,1.4707,1.4708,1.4709,1.4732,1.4732,1.4732,1.4708,0,0,1.4731,1.4731,0,0,0,0,0,0,0,0,1.4635,1.4637,1.4658,1.4661,1.4663,1.4683,1.4667,1.4679,1.4705,1.469,1.4708,1.4709,1.4714,1.4716,1.4718,1.4709,1.471,1.4731,1.4731,1.4731,1.4731,0,0,0,0,0,0,0,1.4634,1.4636,1.4648,1.4659,1.4662,1.4671,1.4674,1.4669,1.4695,1.4691,1.4694,1.4697,1.4716,1.4718,1.4719,1.471,1.4731,1.4731,1.4731,1.4731,1.4682,1.4681,0,0,0,0,0,0,1.463,1.4635,1.4647,1.4649,1.4652,1.467,1.4674,1.4675,1.4695,1.47,1.4696,1.4699,1.4718,1.4719,1.472,1.4693,1.4731,1.4731,1.4731,1.4683,1.4682,1.468,0,0,0,0,0,0,1.4629,1.4631,1.4646,1.4643,1.4645,1.4669,1.467,1.4675,1.4677,1.4699,1.4704,1.4693,1.4719,1.472,1.471,1.4694,1.4731,1.4731,1.4685,1.4683,1.4681,1.4638,0,0,0,0,0,0,1.4629,1.463,1.4622,1.4642,1.4645,1.4637,1.4669,1.4675,1.4677,1.4681,1.4698,1.4702,1.472,1.471,1.471,1.4694,1.4731,1.4686,1.4684,1.4681,1.4641,1.4635,1.463,0,0,0,0,0,1.4628,1.4609,1.4622,1.4623,1.4636,1.4636,1.4638,1.466,1.4676,1.4667,1.4681,1.4701,1.4696,1.4709,1.4709,1.4693,1.4687,1.4684,1.4682,1.4644,1.4636,1.463,0,0,0,0,0,0,1.4586,1.4612,1.4626,1.4613,1.4622,1.4643,1.4633,1.4651,1.4655,1.4658,1.4684,1.4688,1.4674,1.4683,1.4697,1.4671,1.4695,1.4692,1.4666,1.4659,1.4653,1.4651,1.4731,0,0,0,0,0,1.4575,1.4574,1.4597,1.4583,1.4587,1.4609,1.461,1.4626,1.4636,1.464,1.4653,1.4661,1.4661,1.466,1.4662,1.4643,1.4646,1.4632,1.4626,1.4621,1.4618,1.4607,1.4601,1.4671,1.4671,1.4671,0,0,1.4553,1.4567,1.4565,1.4575,1.4584,1.4581,1.4612,1.4608,1.4606,1.4639,1.4631,1.464,1.4651,1.4636,1.463,1.4643,1.4599,1.4618,1.4614,1.4613,1.4604,1.4597,1.4591,1.4669,1.467,1.467,0,0,1.4511,1.4522,1.4511,1.4519,1.4532,1.4547,1.4544,1.4563,1.457,1.4563,1.4587,1.4584,1.4584,1.459,1.4594,1.4552,1.457,1.4552,1.4522,1.4512,1.4506,1.4501,1.4485,1.448,1.4549,1.4549,1.4549,0,1.4481,1.4479,1.4503,1.4498,1.4501,1.4531,1.4519,1.4526,1.4538,1.4539,1.4553,1.4553,1.4562,1.4549,1.4538,1.454,1.4537,1.455,1.4505,1.45,1.4496,1.4481,1.4476,1.4547,1.4547,1.4547,1.4547,0,1.4441,1.4439,1.4429,1.444,1.4442,1.4434,1.4456,1.4454,1.447,1.4483,1.4473,1.4486,1.4489,1.4488,1.4502,1.4476,1.4483,1.4501,1.4525,1.4487,1.4473,1.4468,1.4543,1.4544,1.4545,1.4545,0,0,1.4374,1.4399,1.4394,1.4399,1.4415,1.4414,1.4406,1.441,1.4408,1.4415,1.4408,1.4407,1.4423,1.4427,1.4442,1.4433,1.4398,1.4452,1.4452,1.444,1.4368,1.4354,1.4347,1.441,1.4409,1.4409,1.4366,0,1.4335,1.4323,1.4344,1.4327,1.4325,1.4353,1.4346,1.4354,1.4366,1.4364,1.4377,1.4375,1.4397,1.4399,1.4391,1.4404,1.4384,1.4407,1.4403,1.4402,1.4399,1.434,1.4325,1.4285,1.4361,1.4361,1.436,0,1.4287,1.4292,1.4275,1.4291,1.4291,1.4284,1.4289,1.4288,1.4297,1.4306,1.431,1.4328,1.432,1.4344,1.4333,1.4348,1.4348,1.4353,1.4352,1.4352,1.4378,1.4337,1.4273,1.4266,1.4352,1.4353,1.4353,0,1.4238,1.4241,1.4231,1.4234,1.4253,1.4247,1.4255,1.4266,1.4266,1.427,1.4271,1.4273,1.4275,1.4276,1.4294,1.431,1.428,1.4305,1.4286,1.4285,1.4278,1.4278,1.4211,1.4278,1.4279,1.4279,1.4279,0,1.4192,1.418,1.4209,1.4203,1.419,1.4213,1.42,1.421,1.4219,1.4214,1.4238,1.4233,1.4258,1.4255,1.4269,1.4256,1.4257,1.4263,1.4267,1.426,1.4259,1.426,1.4263,1.4277,1.4277,1.4278,1.4278,0,1.4135,1.4154,1.4145,1.4163,1.4167,1.4157,1.4172,1.4166,1.4179,1.4173,1.4172,1.4192,1.419,1.4208,1.4209,1.4219,1.4199,1.4208,1.4196,1.4198,1.4177,1.4178,1.4108,1.41,1.4173,1.4172,1.4171,0,1.4104,1.4095,1.4113,1.4111,1.4118,1.4115,1.4116,1.4139,1.4138,1.4148,1.414,1.414,1.4141,1.4136,1.415,1.415,1.4159,1.4134,1.4159,1.4152,1.4157,1.4157,1.4156,1.4128,1.4128,1.4127,1.4126,0,1.4046,1.4055,1.4056,1.406,1.406,1.4064,1.4069,1.4067,1.4091,1.4089,1.4087,1.4088,1.4089,1.4087,1.4091,1.4097,1.4115,1.4118,1.4114,1.4107,1.41,1.4102,1.4181,1.412,1.412,1.4121,1.4121,1.4121,1.4,1.3994,1.4004,1.4004,1.401,1.4014,1.4009,1.4022,1.4021,1.4024,1.4037,1.4032,1.404,1.4046,1.4051,1.4047,1.4059,1.4052,1.405,1.4048,1.4044,1.4101,1.4047,1.4048,1.4048,1.4048,1.4048,0,1.3943,1.3951,1.395,1.3957,1.3956,1.3974,1.398,1.3978,1.3974,1.3981,1.3981,1.3978,1.3977,1.399,1.399,1.3984,1.3992,1.3983,1.3984,1.3984,1.4034,1.4037,1.3977,1.3977,1.3977,1.3977,1.3977,1.3977,1.3913,1.3902,1.3912,1.3904,1.3913,1.3909,1.3911,1.3914,1.3919,1.3915,1.3914,1.3923,1.3932,1.3933,1.3932,1.3936,1.3934,1.3922,1.3929,1.3974,1.3981,1.3988,1.3991,1.3922,1.3922,1.388,1.388,1.3879]}]]